Other Public Products
Issued by NWS Charleston, SC

Current Version | Previous Version | Graphics & Text | Print | Product List | Glossary On
Versions: 1 2 3 4 5 6 7 8 9 10 11 12 13 14 15 16 17 18 19 20 21 22 23 24 25 26 27 28 29 30 31 32 33 34 35 36 37 38 39 40 41 42 43 44 45 46 47 48 49 50
000
FPUS82 KCHS 260412
OPUCHS

TEST...KCHS/KSAV Gateway Observations...TEST
National Weather Service Charleston SC
1200 AM EDT WED JUL 26 2017

NOTE: "fair" indicates few or no clouds below 12,000 feet with no
significant weather and/or obstructions to visibility.

SCZ050-WAZ558-NCZ071-TXZ119-213-PAZ071-DCZ001-FLZ074-172-MI076-
NYZ176-178-MAZ016-IL014-TNZ027-NJZ106-GAZ044-MD014-260500-

...Gateway Observations for Charleston International...

CITY           SKY/WX    TMP DP  RH WIND       PRES   REMARKS
Chas Airport   CLOUDY    77  71  82 SW5       30.09S
Seattle        PTCLDY    75  51  43 NW8       29.99S
Charlotte      PTCLDY    79  71  76 CALM      30.12S
Dallas DFW     CLEAR     88  70  55 SE12      30.02R HX  93
Dallas Love    CLEAR     89  69  51 SE17G23   30.03R HX  93
Philladelphia  CLOUDY    68  63  84 E8        30.21R
Wash National  PTCLDY    74  63  68 N8        30.20R
Baltimore      PTCLDY    69  62  78 NW3       30.19R
Miami          MOCLDY    85  77  77 E5        30.12R HX  95
Detroit        PTCLDY    67  63  87 SE5       30.21R
Newark         CLOUDY    69  58  67 NE10      30.21S
Laguardia      CLOUDY    68  60  75 NE9       30.21S
J F K          CLOUDY    68  61  78 NE8       30.23R
Boston Logan   CLEAR     60  54  80 SW5       30.21S
Ft. Lauderdale MOCLDY    85  78  80 CALM      30.12R HX  96
Chicago O`Hare PTCLDY    70  58  65 S5        30.14F
Chicago Midway MOCLDY    74  59  59 SE7       30.14F
Houston Bush   PTCLDY    84  75  74 S6        30.10R HX  92
Houston Hobby  MOCLDY    84  76  76 SE7       30.10R HX  93
Nashville      MOCLDY    82  74  76 CALM      30.10S
Atlanta        CLOUDY    78  72  81 S3        30.12F

$$

GAZ044-118-TXZ119-213-NCZ071-DCZ001-MDZ014-506-PAZ021-071-NJZ106-
NYZ176-178-MAZ106-OHZ011-021-055-MIZ076-KYZ091-ILZ014-INZ047-
MNZ060-ONZ431-260500-

...Gateway Observations for Savannah International...

CITY           SKY/WX    TMP DP  RH WIND       PRES   REMARKS
Savannah Arpt  CLOUDY    77  73  87 SW3       30.08F
Atlanta        CLOUDY    78  72  81 S3        30.12F
Charlotte      PTCLDY    79  71  76 CALM      30.12S
Dallas DFW     CLEAR     88  70  55 SE12      30.02R HX  93
Houston Bush   PTCLDY    84  75  74 S6        30.10R HX  92
Wash National  PTCLDY    74  63  68 N8        30.20R
Wash Dulles    PTCLDY    67  61  81 NW3       30.21R
Baltimore      PTCLDY    69  62  78 NW3       30.19R
Philadelphia   CLOUDY    68  63  84 E8        30.21R
Newark         CLOUDY    69  58  67 NE10      30.21S
Laguardia      CLOUDY    68  60  75 NE9       30.21S
J F K          CLOUDY    68  61  78 NE8       30.23R
Boston         CLEAR     60  54  80 SW5       30.21S
Pittsburg      PTCLDY    66  60  81 CALM      30.22S
Akron          CLEAR     63  55  75 E7        30.23S
Cleveland      CLEAR     68  56  65 E5        30.23S
Cincinnati     PTCLDY    69  63  81 E9        30.19R
Columbus       CLEAR     63  60  92 SE3       30.20S
Detroit        PTCLDY    67  63  87 SE5       30.21R
Chicago O`Hare PTCLDY    70  58  65 S5        30.14F
Minneapolis    CLOUDY    79  72  79 SW9       29.94R
Indianapolis   CLEAR     70  61  73 E8        30.16R
Toronto Canada CLEAR     64  55  72 S2        30.22S

$$




USA.gov is the U.S. government's official web portal to all federal, state and local government web resources and services.